Regional Weather Roundup
Issued by NWS Goodland, KS

Home | Current Version | Previous Version | Graphics & Text | Print | Product List | Glossary On
Versions: 1 2 3 4 5 6 7 8 9 10 11 12 13 14 15 16 17 18 19 20 21 22 23 24 25 26 27 28 29 30 31 32 33 34 35 36 37 38 39 40 41 42 43 44 45 46 47 48 49 50
988
ASUS43 KGLD 300708
RWRGLD

GOODLAND FORECAST AREA HOURLY WEATHER ROUNDUP
NATIONAL WEATHER SERVICE GOODLAND KS
100 AM MDT THU MAR 30 2017

...OFFICIAL OBSERVATIONS...

CITY           SKY/WX    TMP DP  RH WIND       PRES   REMARKS
GOODLAND KS    CLEAR     34  33  96 NW13      29.85F
HILL CITY KS   CLOUDY    41  38  89 N23G29    29.82S
IMPERIAL NEB   CLEAR     33  31  92 N9        29.89F
MCCOOK NEB     CLOUDY    41  38  89 N14       29.86F
AKRON CO       CLEAR     34  32  92 W8        29.92F
BURLINGTON CO  CLEAR     35  33  92 NW14      29.89S
LIMON CO       CLEAR     29  28  96 N3        29.93F
$$

...UNOFFICIAL OBSERVATIONS...

CITY           SKY/WX    TMP DP  RH WIND       PRES   REMARKS
NORTON KS      CLOUDY    39  34  81 N18G25    29.82
SHARON SPRINGS   N/A     36  34  92 NW13G20     N/A
TRENTON NEB      N/A     37  32  82 N8          N/A
KIT CARSON CO    N/A     36  33  90 MISG        N/A
YUMA CO        FAIR      32  32 100 W9        29.91F
$$




USA.gov is the U.S. government's official web portal to all federal, state and local government web resources and services.